Погода Фурманово

Погода Фурманово : погода сейчас, прогноз погоды и архив. Всё, что Вы хотите узнать о погоде Фурманово!

Поиск расширенной информации на нашем сайте:

Другие новости

Новости СМИ2

Главная страница сайта

Новости сайта

02.10.2013

Напоминаем, что на нашем новом сайте вы можете получить высокодетализированные прогнозы погоды по пунктам России, СНГ и мира (включающие важные для авиации метеовеличины, такие как направление и скорость ветра, видимость, явления погоды, количество и форма облачности, нижняя и верхняя граница облачности), а также ознакомиться с разнообразными материалами по авиационной метеорологии и подборкой полезных ссылок на эту тему.

Сайт Метеоцентр.Азия посвящён разработке технологий оптимизации авиаметеорологического обслуживания, включая проектирование и перспективное создание нескольких автоматизированных авиаметеорологических систем:
- система выпуска высокодетальных прогностических карт явлений погоды для нижнего воздушного пространства по России и ближнему зарубежью;
- система верификации прогнозов TAF (выпускаемых синоптиками официальных АМСГ РФ и ближнего зарубежья) и AUTOTAF (выпускаемых сайтом Метеоцентр.Азия) - выявление ошибок, онлайн-сопоставление с фактической погодой METAR, автоматическое внесение коррективов в прогнозы при резком отклонении фактической погоды от прогноза, подсчёт оправдываемости прогнозов по элементам и в целом;
- система обработки, анализа и отображения авиаметеорологической информации для применения провайдерами метеорологической информации.


Погода Фурманово - сегодня

Время (UTC), дата Ветер
(°,м/с) 
Видим.   Явления Облачность Т
(°С)
Тd
(°С)
f(%) Тe
(°С)
Pmin
(гПа)
dP
(гПа)
Po
(мм)
O2
(г/м3)
Тmin Tmax R s Состояние
почвы
21 21.03.17 070 (В) н/о    10/10 600 м 
[Sc]
-1 -3.5 83 -5  1010.8  0.2  757  307           
00 22.03.17 050 (СВ) н/о    10/10 600 м 
[Sc]
-1.4 -3.1 88 -6  1011.1  0.3  757  307           
03 22.03.17 050 (СВ) 4000 м  слаб. дождь [диам. гололёда 1 мм]  10/10 200 м 
[Frnb]
-2.1 -3 94 -7  1012  0.9  758  308      0.3     
06 22.03.17 070 (В) 4000 м  слаб. переохл. морось (гололёд){дождь}  10/10 200 м 
[Frnb]
-0.7 -1.7 93 -5  1013.2  1.2  759  307  -2.2    0.3     
09 22.03.17 070 (В) 4000 м  дымка{морось}  10/10 300 м 
[St]
+1.7 +0.3 90 -2  1014.4  1.2  760  304           
12 22.03.17 010 (С) 4000 м  слаб. морось  10/10 200 м 
[St]
+1.5 +0.4 92 -2  1015.8  1.4  761  305           
18 22.03.17 050 (СВ) н/о  дымка{морось}  10/10 300 м 
[Frnb]
+1.5 +0.7 94 -1  1019.4  764  306    +2.5  0.3     
21 22.03.17 050 (СВ) н/о  слаб. морось  10/10 100 м 
[St]
+1.3 +0.5 94 -1  1020  0.6  764  306           
00 23.03.17 050 (СВ) н/о  дымка{морось}  10/10 300 м 
[St]
+1.7 +0.3 90 +1  1021.1  1.1  765  306           
03 23.03.17 140 (ЮВ) 20000 м  в посл. час дождь  9/9 600 м 
[Sc]
+1.3 -0.1 90 +2  1022.4  1.3  766  307      0.8     
06 23.03.17 180 (Ю) 20000 м    10/10 600 м 
[Cu Sc]
+3.4 -0.1 78 +3  1023.8  1.4  767  305  +1    0.8     
09 23.03.17 230 (ЮЗ) 20000 м    8/8 1000 м 
[Cu med, cong]
+7.1 -0.5 58 +7  1024.1  0.3  767  301           
12 23.03.17 180 (Ю) 20000 м    10/10 600 м кучево-дожд. 
[Cb cap]
+8.5 +0.1 55 +9  1024.2  0.1  767  300           
15 23.03.17 230 (ЮЗ) 20000 м    8/8 600 м 
[Sc]
+7.2 +2 69 +7  1024.7  0.5  768  301    +9       
18 23.03.17 230 (ЮЗ) н/о    4/4 600 м 
[Sc]
+2.1 -0.1 85 +1  1025.1  0.4  768  307    +9       
21 23.03.17 320 (СЗ) н/о    6/6 600 м 
[Sc]
+0.6 -0.8 90 1025.8  0.7  768  309           
00 24.03.17 320 (СЗ) н/о    6/6 600 м 
[Sc]
+0.4 -0.8 92 1025.8  768  309           
03 24.03.17 360 (С) 20000 м    8/4 600 м средняя 
[Sc|Ac lent]
-0.4 -1.6 92 -1  1026.1  0.3  769  310           
06 24.03.17 270 (З) 20000 м    9/4 600 м кучево-дожд., средняя 
[Cb cap|Ac As]
+2.2 +0 85 +1  1026.7  0.6  769  307  -0.8         
09 24.03.17 270 (З) 20000 м    8/4 1000 м средняя 
[Cu med, cong|Ac lent]
+5.2 +1.1 75 +4  1026  -0.7  769  304           
12 24.03.17 320 (СЗ) 20000 м    10/8 600 м кучево-дожд., средняя 
[Cb cap|Ac As]
+8 +2.4 68 +7  1025.1  -0.9  768  300           
15 24.03.17 тихо ()   20000 м    10/10 600 м кучево-дожд. 
[Cb cap]
+7.1 +3.8 80 +7  1024.5  -0.6  767  301    +8.8       
18 24.03.17 180 (Ю) н/о    ясно 
+3.1 +1.3 88 +3  1023.9  -0.6  767  305    +8.8       
21 24.03.17 180 (Ю) н/о    ясно 
+1.7 +0.3 90 1022.2  -1.7  766  307           
00 25.03.17 180 (Ю) н/о    10/0 средняя 
[Ac As]
+1.6 +0.2 90 -1  1019.7  -2.5  764  306           
Время (UTC), дата Ветер
(°,м/с) 
Видим.   Явления Облачность Т
(°С)
Тd
(°С)
f(%) Тe
(°С)
Pmin
(гПа)
dP
(гПа)
Po
(мм)
O2
(г/м3)
Тmin Tmax R s Состояние
почвы

Для получения пояснительной информации подведите курсор к названию столбца.

ПОГОДА Фурманово - архив

Всё, что Вы хотите узнать о погоде Фурманово - удобно и подробно!

Выберите нужную дату (начиная с 1 января 2015* года) и нажмите кнопку "Найти".
Будут отображены архивные сводки погоды по пункту Фурманово, начиная с указанной даты.


Отображать данные в формате CSV (для использования в таблицах Excel)


Внимание! Наш архив погоды предназначен исключительно для личного некоммерческого использования в познавательных целях. Если Вам необходимы официальные справки о состоянии погоды (для производственных, юридических, коммерческих и т.п. целей), обращайтесь в органы Росгидромета.

*Примечание: данная дата относится к архиву по метеостанциям СССР (Россия, СНГ, Балтия).
Архив по метеостанциям Зарубежной Европы и Азии (кроме Китая) хранится 10 дней, по другим регионам земного шара (Китай, Африка, Америка, Австралия, Океания) - 1 день.

Фурманово - район местоположения метеостанции


Название, широта, долгота, высота метеостанции:
Фурманово 49.7°ш. 49.5°д. 10 м над ур. моря [Казахстан]

Дополнительная информация

В oтличие oт бoльшинства пoгoдных сайтoв мы публикуем пoдрoбную метеoинфoрмацию в детальнoм прoфессиoнальнoм фoрмате.

Характеристики температуры и влажнoсти вoздуха измеряются на высoте 2 м в тени вдали oт зданий и деревьев.
Скoрoсть ветра измеряется на высoте 10 м (на урoвне рoста челoвека скoрoсть ветра ниже в 1.5-2 раза). Если метеoстанция нахoдится в гoрoде или в лесу, тo скoрoсть ветра занижена на 2-4 м/с пo сравнению с oткрытым местoм. Скoрoсть ветра над акватoриями крупных рек и oзёр, а также на вершинах хoлмoв на 2-5 м/с выше, чем в oбычных услoвиях.
Атмoсфернoе давление в разных тoчках местнoсти мoжет значительнo oтличаться oт давления на метеoстанции, в зависимoсти oт услoвий рельефа (при пoдъёме на 10 м давление пoнижается примернo на 1 мм рт.ст.).